Time,TemperatureF,DewpointF,PressureIn,WindDirection,WindDirectionDegrees,WindSpeedMPH,WindSpeedGustMPH,Humidity,HourlyPrecipIn,Conditions,Clouds,dailyrainin,SolarRadiationWatts/m^2,SoftwareType,DateUTC
2013-10-28 00:00:00,48.0,22.0,-100.00,SW,223,3.0,18.0,35,0.00,,,0.00,0.000000,,2013-10-28 07:00:00,
2013-10-28 00:42:00,48.0,22.0,-100.00,SW,223,3.0,18.0,35,0.00,,,0.00,0.000000,,2013-10-28 07:42:00,
2013-10-28 00:52:00,48.0,22.0,-100.00,SW,223,3.0,18.0,35,0.00,,,0.00,0.000000,,2013-10-28 07:52:00,
2013-10-28 01:00:00,49.0,18.0,-100.00,WNW,288,7.0,15.0,29,0.00,,,0.00,0.000000,,2013-10-28 08:00:00,
2013-10-28 01:22:00,49.0,18.0,-100.00,WNW,288,7.0,15.0,29,0.00,,,0.00,0.000000,,2013-10-28 08:22:00,
2013-10-28 01:32:00,49.0,18.0,-100.00,WNW,288,7.0,15.0,29,0.00,,,0.00,0.000000,,2013-10-28 08:32:00,
2013-10-28 01:42:00,49.0,18.0,-100.00,WNW,288,7.0,15.0,29,0.00,,,0.00,0.000000,,2013-10-28 08:42:00,
2013-10-28 01:52:00,49.0,18.0,-100.00,WNW,288,7.0,15.0,29,0.00,,,0.00,0.000000,,2013-10-28 08:52:00,
2013-10-28 02:00:00,48.0,19.0,-100.00,SW,214,17.0,30.0,31,0.00,,,0.00,0.000000,,2013-10-28 09:00:00,
2013-10-28 02:43:00,48.0,19.0,-100.00,SW,214,17.0,30.0,31,0.00,,,0.00,0.000000,,2013-10-28 09:43:00,
2013-10-28 02:53:00,48.0,19.0,-100.00,SW,214,17.0,30.0,31,0.00,,,0.00,0.000000,,2013-10-28 09:53:00,
2013-10-28 03:00:00,47.0,19.0,-100.00,SW,216,16.0,40.0,33,0.00,,,0.00,0.000000,,2013-10-28 10:00:00,
2013-10-28 03:43:00,47.0,19.0,-100.00,SW,216,16.0,40.0,33,0.00,,,0.00,0.000000,,2013-10-28 10:43:00,
2013-10-28 03:53:00,47.0,19.0,-100.00,SW,216,16.0,40.0,33,0.00,,,0.00,0.000000,,2013-10-28 10:53:00,
2013-10-28 04:00:00,46.0,19.0,-100.00,SW,219,16.0,30.0,33,0.00,,,0.00,0.000000,,2013-10-28 11:00:00,
2013-10-28 04:42:00,46.0,19.0,-100.00,SW,219,16.0,30.0,33,0.00,,,0.00,0.000000,,2013-10-28 11:42:00,
2013-10-28 04:52:00,46.0,19.0,-100.00,SW,219,16.0,30.0,33,0.00,,,0.00,0.000000,,2013-10-28 11:52:00,
2013-10-28 05:00:00,46.0,18.0,-100.00,SW,219,11.0,32.0,32,0.00,,,0.00,0.000000,,2013-10-28 12:00:00,
2013-10-28 05:42:00,46.0,18.0,-100.00,SW,219,11.0,32.0,32,0.00,,,0.00,0.000000,,2013-10-28 12:42:00,
2013-10-28 05:52:00,46.0,18.0,-100.00,SW,219,11.0,32.0,32,0.00,,,0.00,0.000000,,2013-10-28 12:52:00,
2013-10-28 06:00:00,47.0,18.0,-100.00,NW,325,9.0,33.0,31,0.00,,,0.00,0.000000,,2013-10-28 13:00:00,
2013-10-28 06:42:00,47.0,18.0,-100.00,NW,325,9.0,33.0,31,0.00,,,0.00,0.000000,,2013-10-28 13:42:00,
2013-10-28 06:52:00,47.0,18.0,-100.00,NW,325,9.0,33.0,31,0.00,,,0.00,0.000000,,2013-10-28 13:52:00,
2013-10-28 07:00:00,47.0,16.0,-100.00,SW,223,13.0,31.0,29,0.00,,,0.00,0.000000,,2013-10-28 14:00:00,
2013-10-28 07:42:00,47.0,16.0,-100.00,SW,223,13.0,31.0,29,0.00,,,0.00,0.000000,,2013-10-28 14:42:00,
2013-10-28 07:52:00,47.0,16.0,-100.00,SW,223,13.0,31.0,29,0.00,,,0.00,0.000000,,2013-10-28 14:52:00,
2013-10-28 08:00:00,46.0,16.0,-100.00,SW,216,19.0,36.0,30,0.00,,,0.00,43.000000,,2013-10-28 15:00:00,
2013-10-28 08:43:00,46.0,16.0,-100.00,SW,216,19.0,36.0,30,0.00,,,0.00,43.000000,,2013-10-28 15:43:00,
2013-10-28 08:53:00,46.0,16.0,-100.00,SW,216,19.0,36.0,30,0.00,,,0.00,43.000000,,2013-10-28 15:53:00,
2013-10-28 09:00:00,46.0,21.0,-100.00,SW,232,8.0,39.0,36,0.00,,,0.00,212.000000,,2013-10-28 16:00:00,
2013-10-28 09:43:00,46.0,21.0,-100.00,SW,232,8.0,39.0,36,0.00,,,0.00,212.000000,,2013-10-28 16:43:00,
2013-10-28 09:53:00,46.0,21.0,-100.00,SW,232,8.0,39.0,36,0.00,,,0.00,212.000000,,2013-10-28 16:53:00,
2013-10-28 10:00:00,52.0,22.0,-100.00,SW,220,8.0,22.0,31,0.00,,,0.00,319.000000,,2013-10-28 17:00:00,
2013-10-28 10:42:00,52.0,22.0,-100.00,SW,220,8.0,22.0,31,0.00,,,0.00,319.000000,,2013-10-28 17:42:00,
2013-10-28 10:52:00,52.0,22.0,-100.00,SW,220,8.0,22.0,31,0.00,,,0.00,319.000000,,2013-10-28 17:52:00,
2013-10-28 11:00:00,54.0,20.0,-100.00,SW,218,15.0,32.0,26,0.00,,,0.00,794.000000,,2013-10-28 18:00:00,
2013-10-28 11:42:00,54.0,20.0,-100.00,SW,218,15.0,32.0,26,0.00,,,0.00,794.000000,,2013-10-28 18:42:00,
2013-10-28 11:52:00,54.0,20.0,-100.00,SW,218,15.0,32.0,26,0.00,,,0.00,794.000000,,2013-10-28 18:52:00,
2013-10-28 12:00:00,53.0,18.0,-100.00,SW,220,19.0,39.0,25,0.00,,,0.00,889.000000,,2013-10-28 19:00:00,
2013-10-28 12:42:00,53.0,18.0,-100.00,SW,220,19.0,39.0,25,0.00,,,0.00,889.000000,,2013-10-28 19:42:00,
2013-10-28 12:52:00,53.0,18.0,-100.00,SW,220,19.0,39.0,25,0.00,,,0.00,889.000000,,2013-10-28 19:52:00,
2013-10-28 13:00:00,55.0,19.0,-100.00,SW,223,16.0,40.0,24,0.00,,,0.00,917.000000,,2013-10-28 20:00:00,
2013-10-28 13:22:00,55.0,19.0,-100.00,SW,223,16.0,40.0,24,0.00,,,0.00,917.000000,,2013-10-28 20:22:00,
2013-10-28 13:32:00,55.0,19.0,-100.00,SW,223,16.0,40.0,24,0.00,,,0.00,917.000000,,2013-10-28 20:32:00,
2013-10-28 13:42:00,55.0,19.0,-100.00,SW,223,16.0,40.0,24,0.00,,,0.00,917.000000,,2013-10-28 20:42:00,
2013-10-28 13:52:00,55.0,19.0,-100.00,SW,223,16.0,40.0,24,0.00,,,0.00,917.000000,,2013-10-28 20:52:00,
2013-10-28 14:00:00,56.0,22.0,-100.00,SW,218,18.0,41.0,26,0.00,,,0.00,875.000000,,2013-10-28 21:00:00,
2013-10-28 14:22:00,56.0,22.0,-100.00,SW,218,18.0,41.0,26,0.00,,,0.00,875.000000,,2013-10-28 21:22:00,
2013-10-28 14:34:00,56.0,22.0,-100.00,SW,218,18.0,41.0,26,0.00,,,0.00,875.000000,,2013-10-28 21:34:00,
2013-10-28 14:43:00,56.0,22.0,-100.00,SW,218,18.0,41.0,26,0.00,,,0.00,875.000000,,2013-10-28 21:43:00,
2013-10-28 14:54:00,56.0,22.0,-100.00,SW,218,18.0,41.0,26,0.00,,,0.00,875.000000,,2013-10-28 21:54:00,
2013-10-28 15:00:00,53.0,21.0,-100.00,SW,221,20.0,51.0,28,0.00,,,0.00,762.000000,,2013-10-28 22:00:00,
2013-10-28 15:43:00,53.0,21.0,-100.00,SW,221,20.0,51.0,28,0.00,,,0.00,762.000000,,2013-10-28 22:43:00,
2013-10-28 15:53:00,53.0,21.0,-100.00,SW,221,20.0,51.0,28,0.00,,,0.00,762.000000,,2013-10-28 22:53:00,
2013-10-28 16:00:00,52.0,21.0,-100.00,SW,224,14.0,40.0,29,0.00,,,0.00,562.000000,,2013-10-28 23:00:00,
2013-10-28 16:42:00,52.0,21.0,-100.00,SW,224,14.0,40.0,29,0.00,,,0.00,562.000000,,2013-10-28 23:42:00,
2013-10-28 16:52:00,52.0,21.0,-100.00,SW,224,14.0,40.0,29,0.00,,,0.00,562.000000,,2013-10-28 23:52:00,
2013-10-28 17:00:00,50.0,22.0,-100.00,SW,220,16.0,42.0,33,0.00,,,0.00,317.000000,,2013-10-29 00:00:00,
2013-10-28 17:22:00,50.0,22.0,-100.00,SW,220,16.0,42.0,33,0.00,,,0.00,317.000000,,2013-10-29 00:22:00,
2013-10-28 17:32:00,50.0,22.0,-100.00,SW,220,16.0,42.0,33,0.00,,,0.00,317.000000,,2013-10-29 00:32:00,
2013-10-28 17:42:00,50.0,22.0,-100.00,SW,220,16.0,42.0,33,0.00,,,0.00,317.000000,,2013-10-29 00:42:00,
2013-10-28 17:52:00,50.0,22.0,-100.00,SW,220,16.0,42.0,33,0.00,,,0.00,317.000000,,2013-10-29 00:52:00,
2013-10-28 19:00:00,46.0,22.0,-100.00,SW,218,22.0,44.0,39,-99.99,,,0.00,0.000000,,2013-10-29 02:00:00,
2013-10-28 19:21:00,46.0,22.0,-100.00,SW,218,22.0,44.0,39,-99.99,,,0.00,0.000000,,2013-10-29 02:21:00,
2013-10-28 19:34:00,46.0,22.0,-100.00,SW,218,22.0,44.0,39,-99.99,,,0.00,0.000000,,2013-10-29 02:34:00,
2013-10-28 19:44:00,46.0,22.0,-100.00,SW,218,22.0,44.0,39,-99.99,,,0.00,0.000000,,2013-10-29 02:44:00,
2013-10-28 19:54:00,46.0,22.0,-100.00,SW,218,22.0,44.0,39,-99.99,,,0.00,0.000000,,2013-10-29 02:54:00,
2013-10-28 20:00:00,46.0,26.0,-100.00,SW,222,18.0,42.0,46,0.00,,,0.00,0.000000,,2013-10-29 03:00:00,
2013-10-28 20:40:00,-999.0,-99.9,-100.00,SW,222,18.0,42.0,46,0.00,,,0.00,0.000000,,2013-10-29 03:40:00,
2013-10-28 20:48:00,46.0,26.0,-100.00,SW,222,18.0,42.0,46,0.00,,,0.00,0.000000,,2013-10-29 03:48:00,
2013-10-28 20:55:00,46.0,26.0,-100.00,SW,222,18.0,42.0,46,0.00,,,0.00,0.000000,,2013-10-29 03:55:00,
2013-10-28 21:00:00,44.0,26.0,-100.00,SW,219,17.0,39.0,48,0.00,,,0.00,0.000000,,2013-10-29 04:00:00,
2013-10-28 21:44:00,44.0,26.0,-100.00,SW,219,17.0,39.0,48,0.00,,,0.00,0.000000,,2013-10-29 04:44:00,
2013-10-28 21:57:00,44.0,26.0,-100.00,SW,219,17.0,39.0,48,0.00,,,0.00,0.000000,,2013-10-29 04:57:00,
2013-10-28 22:00:00,45.0,27.0,-100.00,SSW,213,17.0,42.0,49,0.00,,,0.00,0.000000,,2013-10-29 05:00:00,
2013-10-28 22:45:00,45.0,27.0,-100.00,SSW,213,17.0,42.0,49,0.00,,,0.00,0.000000,,2013-10-29 05:45:00,
2013-10-28 22:52:00,45.0,27.0,-100.00,SSW,213,17.0,42.0,49,0.00,,,0.00,0.000000,,2013-10-29 05:52:00,
2013-10-28 23:00:00,43.0,23.0,-100.00,SW,216,20.0,36.0,45,0.00,,,0.00,0.000000,,2013-10-29 06:00:00,
2013-10-28 23:43:00,43.0,23.0,-100.00,SW,216,20.0,36.0,45,0.00,,,0.00,0.000000,,2013-10-29 06:43:00,
2013-10-28 23:52:00,43.0,23.0,-100.00,SW,216,20.0,36.0,45,0.00,,,0.00,0.000000,,2013-10-29 06:52:00,